User: anonymous   Login
Location: Fort Wayne
(41.1310°N, 85.1290°W)
Time: 04:40:24
(UTC-04:00)
Language:

Cosmos 2082 - Orbit

View from above orbital plane
View from above orbital plane
View from above satellite
View from above satellite

Ground track
Ground track

The orbit data is extracted from the following two-line orbital elements,

1 20624U 90046A   17175.55287741 -.00000189 +00000-0 -73928-4 0  9996
2 20624 071.0383 199.1529 0014465 007.5236 352.6101 14.14222228398014
Epoch (UTC): 24 June 2017 13:16:08
Eccentricity: 0.0014465
inclination: 71.0383°
perigee height: 834 km
apogee height: 855 km
right ascension of ascending node: 199.1529°
argument of perigee: 7.5236°
revolutions per day: 14.14222228
mean anomaly at epoch: 352.6101°
orbit number at epoch: 39801

The dashed part of the orbit path shows where the satellite is in the earth's shadow,  

DLR